Satellite: NOAA-10
Catalog number: 16969
Epoch time:      12074.67868145
Element set:    0856
Inclination:      098.5933 deg
RA of node:       105.3716 deg
Eccentricity:    0.0012762
Arg of perigee:   147.9110 deg
Mean anomaly:     212.2849 deg
Mean motion:   14.27533856 rev/day
Decay rate:        9.5e-07 rev/day^2
Epoch rev:           32638
Checksum:              330

Satellite: NOAA-11
Catalog number: 19531
Epoch time:      12074.74319147
Element set:    0851
Inclination:      098.7337 deg
RA of node:       161.8812 deg
Eccentricity:    0.0011710
Arg of perigee:   130.6076 deg
Mean anomaly:     229.6125 deg
Mean motion:   14.14955497 rev/day
Decay rate:      -2.11e-06 rev/day^2
Epoch rev:           21115
Checksum:              283

Satellite: NOAA-12
Catalog number: 21263
Epoch time:      12074.99152017
Element set:    0355
Inclination:      098.7359 deg
RA of node:       097.0690 deg
Eccentricity:    0.0014644
Arg of perigee:   113.5048 deg
Mean anomaly:     246.7685 deg
Mean motion:   14.25482091 rev/day
Decay rate:      -1.15e-06 rev/day^2
Epoch rev:           08313
Checksum:              298

Satellite: MET-3/5
Catalog number: 21655
Epoch time:      12075.55633581
Element set:     359
Inclination:      082.5561 deg
RA of node:       218.3184 deg
Eccentricity:    0.0013223
Arg of perigee:   191.6867 deg
Mean anomaly:     168.3897 deg
Mean motion:   13.17035799 rev/day
Decay rate:        5.1e-07 rev/day^2
Epoch rev:           98957
Checksum:              340

Satellite: MET-2/21
Catalog number: 22782
Epoch time:      12075.58502497
Element set:     364
Inclination:      082.5457 deg
RA of node:       106.7851 deg
Eccentricity:    0.0024010
Arg of perigee:   057.2601 deg
Mean anomaly:     303.0881 deg
Mean motion:   13.83676797 rev/day
Decay rate:        7.0e-08 rev/day^2
Epoch rev:           93622
Checksum:              302

Satellite: OKEAN-4
Catalog number: 23317
Epoch time:      12075.89718604
Element set:     831
Inclination:      082.5398 deg
RA of node:       118.4128 deg
Eccentricity:    0.0019976
Arg of perigee:   302.7638 deg
Mean anomaly:     057.1652 deg
Mean motion:   14.83632528 rev/day
Decay rate:       9.60e-06 rev/day^2
Epoch rev:           94097
Checksum:              333

Satellite: NOAA-14
Catalog number: 23455
Epoch time:      12074.92794851
Element set:    0837
Inclination:      098.8272 deg
RA of node:       159.6050 deg
Eccentricity:    0.0008957
Arg of perigee:   223.7898 deg
Mean anomaly:     136.2565 deg
Mean motion:   14.13883941 rev/day
Decay rate:       3.43e-06 rev/day^2
Epoch rev:           88747
Checksum:              355

Satellite: NOAA-15
Catalog number: 25338
Epoch time:      12074.76175415
Element set:    0187
Inclination:      098.6853 deg
RA of node:       062.5940 deg
Eccentricity:    0.0011039
Arg of perigee:   028.3578 deg
Mean anomaly:     331.8180 deg
Mean motion:   14.25040461 rev/day
Decay rate:       2.03e-06 rev/day^2
Epoch rev:           71940
Checksum:              292

Satellite: RESURS
Catalog number: 25394
Epoch time:      12075.89773462
Element set:      38
Inclination:      098.3152 deg
RA of node:       069.0739 deg
Eccentricity:    0.0002041
Arg of perigee:   128.7427 deg
Mean anomaly:     231.3935 deg
Mean motion:   14.24277560 rev/day
Decay rate:       1.26e-06 rev/day^2
Epoch rev:           71112
Checksum:              289

Satellite: FENGYUN1
Catalog number: 25730
Epoch time:      12075.93505523
Element set:     559
Inclination:      098.8410 deg
RA of node:       036.5792 deg
Eccentricity:    0.0018587
Arg of perigee:   276.3884 deg
Mean anomaly:     083.5164 deg
Mean motion:   14.09318407 rev/day
Decay rate:      1.224e-05 rev/day^2
Epoch rev:           66147
Checksum:              318

Satellite: OKEAN-0
Catalog number: 25860
Epoch time:      12074.91305905
Element set:    0574
Inclination:      097.9247 deg
RA of node:       039.5507 deg
Eccentricity:    0.0001079
Arg of perigee:   109.5898 deg
Mean anomaly:     250.5427 deg
Mean motion:   14.74115629 rev/day
Decay rate:       6.46e-06 rev/day^2
Epoch rev:           68068
Checksum:              326

Satellite: NOAA-16
Catalog number: 26536
Epoch time:      12074.77047765
Element set:    0671
Inclination:      099.1070 deg
RA of node:       115.3858 deg
Eccentricity:    0.0010356
Arg of perigee:   353.8402 deg
Mean anomaly:     006.2631 deg
Mean motion:   14.12712599 rev/day
Decay rate:       -8.7e-07 rev/day^2
Epoch rev:           59170
Checksum:              305

Satellite: NOAA-17
Catalog number: 27453
Epoch time:      12074.89574152
Element set:    0636
Inclination:      098.3468 deg
RA of node:       106.6555 deg
Eccentricity:    0.0012730
Arg of perigee:   074.7459 deg
Mean anomaly:     285.5123 deg
Mean motion:   14.24404058 rev/day
Decay rate:       2.05e-06 rev/day^2
Epoch rev:           50533
Checksum:              305

Satellite: NOAA-18
Catalog number: 28654
Epoch time:      12074.72605978
Element set:    0110
Inclination:      099.0357 deg
RA of node:       032.0811 deg
Eccentricity:    0.0015133
Arg of perigee:   061.9532 deg
Mean anomaly:     298.3160 deg
Mean motion:   14.11618001 rev/day
Decay rate:       3.81e-06 rev/day^2
Epoch rev:           35123
Checksum:              269

